User: anonymous   Login
Location: Mt. Cuba Astronomical Observatory
(39.8100°N, 75.6300°W)
Time: 04:03:24
(UTC-04:00)
Language:

Cosmos 2058 - Orbit

View from above orbital plane
View from above orbital plane
View from above satellite
View from above satellite

Ground track
Ground track

The orbit data is extracted from the following two-line orbital elements,

1 20465U 90010A   17114.89659086 +.00000721 +00000-0 +59436-4 0  9993
2 20465 082.4871 299.0934 0017053 112.2927 248.0105 14.97483696456254
Epoch (UTC): 24 April 2017 21:31:05
Eccentricity: 0.0017053
inclination: 82.4871°
perigee height: 563 km
apogee height: 586 km
right ascension of ascending node: 299.0934°
argument of perigee: 112.2927°
revolutions per day: 14.97483696
mean anomaly at epoch: 248.0105°
orbit number at epoch: 45625

The dashed part of the orbit path shows where the satellite is in the earth's shadow,  

DLR